• En España
  • Lista de países
  • Para 7 días
  • Temperatura del agua
  • Mapa Satelital
  • El tiempo en el mapa
  • Informadores
  • user-avatar
    Iniciar sesión

    Tiempo cada hora Meppel

    Hoy, 28 Marzo, Martes

    Tiempo Temperatura Precipitaciones Viento Presión Humedad
    00:00 +8°C° 0 mm 2 mps 766 mmHg 78%
    01:00 +7°C° 0 mm 2 mps 766 mmHg 80%
    02:00 +7°C° 0 mm 2 mps 765 mmHg 83%
    03:00 +6°C° 0 mm 2 mps 765 mmHg 86%
    04:00 +6°C° 0 mm 2 mps 765 mmHg 87%
    05:00 +6°C° 0 mm 2 mps 765 mmHg 89%
    06:00 +6°C° 0 mm 2 mps 765 mmHg 90%
    07:00 +8°C° 0 mm 3 mps 765 mmHg 84%
    08:00 +10°C° 0 mm 3 mps 765 mmHg 78%
    09:00 +13°C° 0 mm 3 mps 765 mmHg 73%
    10:00 +14°C° 0 mm 3 mps 765 mmHg 69%
    11:00 +15°C° 0 mm 4 mps 765 mmHg 64%
    12:00 +18°C° 0 mm 4 mps 765 mmHg 60%
    13:00 +18°C° 0 mm 4 mps 765 mmHg 60%
    14:00 +18°C° 0 mm 4 mps 765 mmHg 60%
    15:00 +18°C° 0 mm 4 mps 765 mmHg 60%
    16:00 +17°C° 0 mm 4 mps 765 mmHg 67%
    17:00 +14°C° 0 mm 3 mps 765 mmHg 74%
    18:00 +12°C° 0 mm 3 mps 765 mmHg 82%
    19:00 +12°C° 0 mm 3 mps 765 mmHg 83%
    20:00 +11°C° 0 mm 4 mps 765 mmHg 84%
    21:00 +10°C° 0 mm 4 mps 765 mmHg 86%
    22:00 +9°C° 0 mm 5 mps 765 mmHg 86%
    23:00 +9°C° 0 mm 5 mps 765 mmHg 86%

    Mañana, 29 Marzo, Miércoles

    Tiempo Temperatura Precipitaciones Viento Presión Humedad
    00:00 +8°C° 0 mm 5 mps 765 mmHg 86%
    01:00 +8°C° 0 mm 5 mps 765 mmHg 88%
    02:00 +8°C° 0 mm 5 mps 765 mmHg 89%
    03:00 +8°C° 0 mm 5 mps 765 mmHg 90%
    04:00 +8°C° 0,1 mm 6 mps 765 mmHg 90%
    05:00 +8°C° 0,1 mm 6 mps 765 mmHg 90%
    06:00 +9°C° 0,1 mm 6 mps 765 mmHg 90%
    07:00 +9°C° 0,1 mm 6 mps 766 mmHg 89%
    08:00 +10°C° 0,1 mm 7 mps 766 mmHg 88%
    09:00 +10°C° 0,1 mm 7 mps 766 mmHg 87%
    10:00 +11°C° 0,1 mm 7 mps 766 mmHg 84%
    11:00 +12°C° 0,1 mm 7 mps 766 mmHg 82%
    12:00 +12°C° 0,1 mm 7 mps 766 mmHg 79%
    13:00 +12°C° 0,1 mm 7 mps 766 mmHg 80%
    14:00 +13°C° 0,1 mm 6 mps 766 mmHg 81%
    15:00 +13°C° 0,1 mm 5 mps 766 mmHg 82%
    16:00 +12°C° 0 mm 5 mps 767 mmHg 84%
    17:00 +12°C° 0 mm 5 mps 767 mmHg 85%
    18:00 +12°C° 0 mm 4 mps 767 mmHg 87%
    19:00 +11°C° 0 mm 4 mps 767 mmHg 88%
    20:00 +11°C° 0 mm 4 mps 767 mmHg 89%
    21:00 +11°C° 0 mm 4 mps 768 mmHg 89%
    22:00 +11°C° 0 mm 4 mps 768 mmHg 90%
    23:00 +10°C° 0 mm 4 mps 768 mmHg 90%

    Pasado mañana, 30 Marzo, Jueves

    Tiempo Temperatura Precipitaciones Viento Presión Humedad
    00:00 +10°C° 0 mm 4 mps 768 mmHg 91%
    01:00 +10°C° 0 mm 4 mps 768 mmHg 92%
    02:00 +10°C° 0 mm 4 mps 768 mmHg 93%
    03:00 +9°C° 0 mm 5 mps 767 mmHg 94%
    04:00 +10°C° 0 mm 4 mps 767 mmHg 93%
    05:00 +11°C° 0 mm 4 mps 768 mmHg 93%
    06:00 +11°C° 0 mm 4 mps 768 mmHg 92%
    07:00 +12°C° 0 mm 5 mps 768 mmHg 88%
    08:00 +13°C° 0 mm 5 mps 768 mmHg 83%
    09:00 +15°C° 0 mm 5 mps 768 mmHg 78%
    10:00 +16°C° 0 mm 6 mps 768 mmHg 72%
    11:00 +19°C° 0 mm 6 mps 767 mmHg 67%
    12:00 +20°C° 0 mm 6 mps 767 mmHg 61%
    13:00 +20°C° 0 mm 6 mps 767 mmHg 61%
    14:00 +20°C° 0 mm 6 mps 766 mmHg 60%
    15:00 +21°C° 0 mm 5 mps 766 mmHg 59%
    16:00 +19°C° 0 mm 5 mps 766 mmHg 66%
    17:00 +18°C° 0 mm 4 mps 766 mmHg 73%
    18:00 +16°C° 0 mm 3 mps 766 mmHg 79%
    19:00 +16°C° 0 mm 3 mps 765 mmHg 81%
    20:00 +14°C° 0 mm 4 mps 765 mmHg 83%
    21:00 +13°C° 0 mm 4 mps 765 mmHg 85%
    22:00 +13°C° 0 mm 4 mps 765 mmHg 86%
    23:00 +13°C° 0 mm 4 mps 765 mmHg 86%

    31 Marzo, Viernes

    Tiempo Temperatura Precipitaciones Viento Presión Humedad
    00:00 +13°C° 0 mm 4 mps 764 mmHg 87%
    01:00 +12°C° 0 mm 4 mps 764 mmHg 88%
    02:00 +12°C° 0 mm 4 mps 763 mmHg 88%
    03:00 +11°C° 0 mm 4 mps 763 mmHg 89%
    04:00 +11°C° 0 mm 4 mps 762 mmHg 89%
    05:00 +11°C° 0 mm 4 mps 762 mmHg 90%
    06:00 +11°C° 0 mm 4 mps 762 mmHg 90%
    07:00 +12°C° 0 mm 5 mps 762 mmHg 85%
    08:00 +14°C° 0 mm 5 mps 761 mmHg 81%
    09:00 +16°C° 0 mm 5 mps 761 mmHg 76%
    10:00 +17°C° 0 mm 5 mps 761 mmHg 72%
    11:00 +19°C° 0 mm 5 mps 761 mmHg 68%
    12:00 +21°C° 0 mm 5 mps 760 mmHg 64%
    13:00 +21°C° 0 mm 5 mps 760 mmHg 63%
    14:00 +21°C° 0 mm 4 mps 760 mmHg 62%
    15:00 +21°C° 0 mm 4 mps 759 mmHg 60%
    16:00 +20°C° 0,2 mm 3 mps 759 mmHg 67%
    17:00 +18°C° 0,2 mm 3 mps 759 mmHg 73%
    18:00 +17°C° 0,2 mm 2 mps 758 mmHg 79%
    19:00 +16°C° 0,2 mm 3 mps 758 mmHg 81%
    20:00 +14°C° 0,2 mm 3 mps 758 mmHg 83%
    21:00 +14°C° 0,2 mm 3 mps 758 mmHg 85%
    22:00 +13°C° 0 mm 4 mps 758 mmHg 85%
    23:00 +12°C° 0 mm 4 mps 758 mmHg 85%

    1 Abril, Sábado

    Tiempo Temperatura Precipitaciones Viento Presión Humedad
    00:00 +11°C° 0 mm 4 mps 758 mmHg 85%
    01:00 +11°C° 0 mm 4 mps 757 mmHg 85%
    02:00 +11°C° 0 mm 4 mps 757 mmHg 86%
    03:00 +10°C° 0 mm 4 mps 757 mmHg 86%
    04:00 +10°C° 0 mm 4 mps 757 mmHg 87%
    05:00 +10°C° 0 mm 4 mps 757 mmHg 89%
    06:00 +9°C° 0 mm 5 mps 757 mmHg 90%
    07:00 +12°C° 0 mm 5 mps 758 mmHg 87%
    08:00 +13°C° 0 mm 5 mps 758 mmHg 84%
    09:00 +14°C° 0 mm 6 mps 758 mmHg 81%
    10:00 +14°C° 0 mm 6 mps 759 mmHg 78%
    11:00 +14°C° 0 mm 6 mps 759 mmHg 76%
    12:00 +15°C° 0 mm 6 mps 759 mmHg 73%
    13:00 +15°C° 0 mm 5 mps 759 mmHg 70%
    14:00 +15°C° 0 mm 5 mps 760 mmHg 66%
    15:00 +16°C° 0 mm 5 mps 760 mmHg 63%
    16:00 +14°C° 0 mm 4 mps 760 mmHg 68%
    17:00 +13°C° 0 mm 4 mps 761 mmHg 72%
    18:00 +12°C° 0 mm 3 mps 761 mmHg 77%
    19:00 +11°C° 0 mm 3 mps 762 mmHg 80%
    20:00 +10°C° 0 mm 3 mps 762 mmHg 83%
    21:00 +9°C° 0 mm 2 mps 763 mmHg 86%
    22:00 +9°C° 0 mm 2 mps 763 mmHg 87%
    23:00 +8°C° 0 mm 2 mps 763 mmHg 88%

    2 Abril, Domingo

    Tiempo Temperatura Precipitaciones Viento Presión Humedad
    00:00 +8°C° 0 mm 2 mps 764 mmHg 89%
    01:00 +8°C° 0 mm 2 mps 764 mmHg 88%
    02:00 +8°C° 0 mm 2 mps 764 mmHg 88%
    03:00 +8°C° 0 mm 1 mps 765 mmHg 88%
    04:00 +9°C° 0 mm 1 mps 765 mmHg 87%
    05:00 +9°C° 0 mm 1 mps 765 mmHg 87%
    06:00 +9°C° 0 mm 1 mps 766 mmHg 87%
    07:00 +11°C° 0 mm 1 mps 766 mmHg 80%
    08:00 +13°C° 0 mm 2 mps 767 mmHg 72%
    09:00 +15°C° 0 mm 2 mps 767 mmHg 65%
    10:00 +16°C° 0 mm 2 mps 767 mmHg 62%
    11:00 +17°C° 0 mm 2 mps 767 mmHg 59%
    12:00 +18°C° 0 mm 2 mps 768 mmHg 56%
    13:00 +18°C° 0,1 mm 3 mps 768 mmHg 57%
    14:00 +18°C° 0,1 mm 3 mps 768 mmHg 58%
    15:00 +18°C° 0,1 mm 3 mps 768 mmHg 59%
    16:00 +16°C° 0,1 mm 3 mps 768 mmHg 67%
    17:00 +13°C° 0,1 mm 3 mps 768 mmHg 75%
    18:00 +12°C° 0,1 mm 3 mps 769 mmHg 83%
    19:00 +11°C° 0 mm 3 mps 769 mmHg 87%
    20:00 +10°C° 0 mm 2 mps 770 mmHg 90%
    21:00 +8°C° 0 mm 2 mps 770 mmHg 94%
    22:00 +8°C° 0 mm 2 mps 770 mmHg 94%
    23:00 +9°C° 0 mm 1 mps 770 mmHg 94%
    Mostrar más